User: anonymous   Login
Location: Cluj-Napoca
(46.7712°N, 23.6236°E)
Time: 05:17:17
(UTC+02:00)
Language:

First-Move - Orbit

View from above orbital plane
View from above orbital plane
View from above satellite
View from above satellite

Ground track
Ground track

The orbit data is extracted from the following two-line orbital elements,

1 39439U 13066Z   21339.48618384  .00001383  00000-0  17099-3 0  9998
2 39439  97.6167 316.9965 0063397 318.5226  41.1185 14.82967530433296
Epoch (UTC): 05 December 2021 11:40:06
Eccentricity: 0.0063397
inclination: 97.6167°
perigee height: 575 km
apogee height: 664 km
right ascension of ascending node: 316.9965°
argument of perigee: 318.5226°
revolutions per day: 14.82967530
mean anomaly at epoch: 41.1185°
orbit number at epoch: 43329

The dashed part of the orbit path shows where the satellite is in the earth's shadow,  

DLR